TimePDT,TemperatureF,Dew PointF,Humidity,Sea Level PressureIn,VisibilityMPH,Wind Direction,Wind SpeedMPH,Gust SpeedMPH,PrecipitationIn,Events,Conditions,WindDirDegrees,DateUTC
12:53 AM,48.0,36.0,63,29.95,10.0,West,4.6,-,N/A,,Overcast,270,2013-03-27 07:53:00
1:53 AM,46.9,36.0,66,29.94,10.0,WSW,4.6,-,N/A,,Overcast,250,2013-03-27 08:53:00
2:53 AM,48.0,36.0,63,29.93,10.0,West,4.6,-,N/A,,Overcast,280,2013-03-27 09:53:00
3:53 AM,46.9,37.0,68,29.93,10.0,West,3.5,-,N/A,,Overcast,270,2013-03-27 10:53:00
4:53 AM,48.0,37.0,66,29.93,10.0,WSW,3.5,-,N/A,,Overcast,250,2013-03-27 11:53:00
5:53 AM,48.0,36.0,63,29.94,10.0,Calm,Calm,-,N/A,,Overcast,0,2013-03-27 12:53:00
6:53 AM,48.0,37.0,66,29.94,10.0,SW,3.5,-,N/A,,Overcast,230,2013-03-27 13:53:00
7:53 AM,48.0,37.9,68,29.95,10.0,Calm,Calm,-,N/A,,Overcast,0,2013-03-27 14:53:00
8:53 AM,51.1,36.0,56,29.96,10.0,West,3.5,-,N/A,,Overcast,260,2013-03-27 15:53:00
9:53 AM,52.0,36.0,54,29.97,10.0,West,3.5,-,N/A,,Overcast,270,2013-03-27 16:53:00
10:53 AM,53.1,37.0,55,29.98,10.0,Calm,Calm,-,0.00,,Overcast,0,2013-03-27 17:53:00
11:53 AM,54.0,37.0,53,29.98,10.0,Calm,Calm,-,N/A,,Overcast,0,2013-03-27 18:53:00
12:53 PM,55.9,37.0,49,29.98,10.0,Calm,Calm,-,N/A,,Overcast,0,2013-03-27 19:53:00
1:53 PM,59.0,37.0,44,29.96,10.0,Calm,Calm,-,N/A,,Mostly Cloudy,0,2013-03-27 20:53:00
2:53 PM,62.1,37.9,41,29.95,10.0,Variable,4.6,-,N/A,,Overcast,0,2013-03-27 21:53:00
3:53 PM,62.1,37.9,41,29.94,10.0,South,4.6,-,N/A,,Mostly Cloudy,170,2013-03-27 22:53:00
4:53 PM,61.0,37.9,42,29.94,10.0,North,4.6,-,N/A,,Overcast,350,2013-03-27 23:53:00
5:53 PM,63.0,37.0,38,29.93,10.0,Calm,Calm,-,N/A,,Partly Cloudy,0,2013-03-28 00:53:00
6:53 PM,60.1,37.0,42,29.94,10.0,NNW,3.5,-,N/A,,Clear,340,2013-03-28 01:53:00
7:53 PM,57.0,37.0,47,29.95,10.0,North,5.8,-,N/A,,Overcast,360,2013-03-28 02:53:00
8:53 PM,53.1,37.0,55,29.97,10.0,Calm,Calm,-,N/A,,Mostly Cloudy,0,2013-03-28 03:53:00
9:53 PM,53.1,37.9,57,29.99,10.0,West,5.8,-,N/A,,Overcast,260,2013-03-28 04:53:00
10:53 PM,50.0,37.9,63,29.99,10.0,West,4.6,-,N/A,,Overcast,270,2013-03-28 05:53:00
11:53 PM,50.0,37.9,63,30.00,10.0,WSW,5.8,-,N/A,,Mostly Cloudy,240,2013-03-28 06:53:00